CAPE
1616 1741 1719 1865 1890 1924 1972 2147 1715 1275 1016 532 128 103 173 312 530 497 426 217 146 161 105 145 148 459 433 316 262 168 187 98 39 13 26 0 6 104 171 211 231 380 576
1724 1753 2157 2138 1995 2011 2050 1974 1533 1133 686 277 92 34 90 333 496 534 558 513 491 410 405 502 443 105 79 103 60 33 18 57 57 22 53 27 13 39 84 112 163 235 362
1797 2285 2331 2144 2032 2031 1998 1718 1451 942 520 60 330 201 196 268 340 477 514 336 495 479 410 371 235 107 83 95 76 54 26 12 44 66 40 30 17 21 27 175 282 354 409
1967 2307 2241 2129 2016 2048 1900 1828 1444 757 193 274 449 393 490 554 628 365 364 271 232 166 134 132 137 71 43 97 113 92 83 71 43 35 61 36 23 1 18 78 76 248 421
2184 2341 2233 2109 2211 2055 2213 1966 1356 776 290 405 264 290 755 619 438 244 316 311 120 56 74 148 98 80 156 180 182 113 150 207 123 61 17 27 56 76 42 35 21 46 203
2498 1969 2489 2348 2398 2171 2025 1636 1420 792 841 469 606 1149 839 700 401 295 226 131 41 0 0 69 102 231 298 369 234 181 275 261 75 71 72 38 34 67 106 88 51 10 62
1395 64 86 2506 2306 2012 1789 1859 843 757 567 883 1785 1343 938 744 561 239 108 29 0 0 0 99 180 233 374 339 246 144 75 51 43 57 75 73 75 69 52 27 24 28 36
24 217 702 1850 2064 1844 1978 1707 864 875 1403 1571 1225 964 845 579 229 123 58 0 0 0 5 40 63 165 315 364 320 219 113 40 45 52 71 87 100 118 59 20 20 10 44
138 980 1365 1998 2017 2021 1973 1346 1058 1465 1483 1520 1171 858 560 315 192 80 1 0 0 170 11 5 9 87 102 110 153 145 46 48 81 70 54 61 34 105 109 67 26 8 20
972 1051 1612 1904 1873 1928 1695 1392 1398 1405 1727 1220 948 698 304 293 181 55 0 0 0 8 0 0 0 1 9 12 10 16 13 25 34 41 48 93 121 108 152 154 73 60 17
1490 1806 1814 1774 1670 1508 1402 1177 1298 1117 1212 1160 983 569 361 263 132 35 0 0 0 0 0 0 0 0 0 0 0 0 0 0 0 0 0 4 11 47 73 98 129 68 30
1805 2127 1751 1556 1445 1227 1328 1069 859 818 992 1068 900 755 402 319 92 0 0 0 0 0 0 0 0 0 0 0 0 0 0 0 0 0 0 0 0 0 0 1 12 31 48
1897 2058 1828 1472 1361 1018 1121 1065 607 213 533 1091 955 845 610 442 145 8 0 0 0 0 0 0 0 0 0 0 0 0 0 0 0 0 0 0 0 0 0 0 0 14 23
1580 1852 1792 1432 1285 990 1044 1295 633 250 437 1062 1020 825 609 454 312 154 48 0 0 0 0 0 0 0 0 0 0 0 0 0 0 0 0 0 0 0 0 0 0 0 23
211 1093 1506 1565 1315 1106 1165 467 171 272 589 1169 958 876 674 512 349 261 186 27 0 0 0 0 0 0 0 0 0 0 0 0 0 0 0 0 0 0 0 0 0 0 3
320 615 674 760 1250 1024 1117 139 647 759 1151 1440 1080 949 827 674 449 307 257 114 22 15 0 0 0 0 0 0 0 0 0 0 0 0 0 0 0 0 0 0 0 0 0
763 825 80 712 574 488 712 279 949 1102 1321 1401 1272 1050 1002 870 601 346 241 120 30 18 10 0 0 0 0 0 0 0 0 0 0 0 0 0 0 0 0 0 0 0 0
1014 1265 441 850 875 334 431 348 964 1183 1370 1558 1455 1253 928 871 712 343 356 241 65 50 3 1 0 0 0 0 0 0 0 0 0 0 0 0 0 0 0 0 0 0 0
720 1454 1001 1145 1125 868 751 741 853 1125 1273 1206 1065 923 902 892 579 473 441 431 204 136 10 10 3 2 0 0 0 0 0 0 0 0 0 0 0 0 0 0 0 0 0
1514 675 1314 1324 1141 1227 1057 827 761 567 264 507 478 574 550 816 782 799 546 380 188 113 12 9 14 9 1 0 0 0 0 3 8 0 0 0 0 0 0 0 0 0 0
1482 1353 1462 1173 1233 883 819 391 137 3 14 130 282 343 223 77 327 514 595 298 185 167 12 14 11 17 3 3 16 3 6 3 19 15 1 0 0 0 0 0 1 0 0
1714 1618 1404 1212 1154 831 704 361 231 18 48 183 467 365 128 121 299 442 492 315 165 33 13 27 11 27 18 6 24 7 30 27 24 18 8 2 0 0 0 0 11 16 5
1486 1400 1499 1360 1038 887 862 624 433 232 319 461 386 171 24 13 138 306 230 102 37 35 37 50 16 7 19 11 16 5 6 34 18 18 14 18 11 2 0 0 0 0 0
1317 1127 1054 840 673 767 606 552 543 485 370 282 189 39 0 1 43 135 98 40 34 33 39 41 19 11 28 14 46 26 22 33 23 8 6 18 9 0 0 0 0 0 0
613 482 542 294 268 433 410 329 367 310 282 148 23 0 0 0 4 4 12 19 23 23 13 13 3 13 3 17 16 21 17 22 11 24 4 12 0 0 0 0 0 0 0
732 472 211 439 479 490 396 268 215 132 62 19 0 0 0 0 0 0 0 1 2 2 0 0 0 4 5 15 12 14 18 16 11 5 0 1 0 0 0 0 0 0 0
CIN
-49 -78 -84 -257 -182 -145 -109 -58 -36 -58 -61 -58 -146 -36 -46 -37 -43 -41 -36 -36 -26 -23 -17 -45 -10 -15 -9 -10 -6 -11 -15 -59 -35 -38 -48 0 -103 -66 -65 -82 -66 -104 -88
-55 -95 -265 -242 -196 -120 -73 -56 -39 -70 -84 -64 -28 -32 -51 -38 -83 -78 -57 -26 -21 -14 -14 -7 -18 -40 -44 -29 -17 -19 -32 -45 -20 -31 -32 -29 -51 -52 -52 -153 -126 -78 -155
-36 -256 -232 -222 -170 -98 -65 -32 -30 -61 -108 -177 -140 -127 -121 -94 -38 -22 -21 -32 -28 -20 -18 -13 -12 -27 -40 -16 -7 -5 -23 -17 -24 -23 -12 -1 -1 -42 -94 -151 -146 -134 -117
-261 -236 -230 -194 -146 -74 -53 -63 -85 -138 -138 -213 -102 -77 -27 -27 -14 -30 -23 -26 -17 -21 -60 -66 -60 -42 -49 -34 -14 -5 -10 -30 -11 -11 -17 -16 -13 0 -48 -54 -131 -122 -103
-290 -227 -193 -196 -173 -80 -39 -55 -88 -117 -262 -186 -137 -109 -17 -9 -16 -35 -21 -14 -21 -36 -84 -44 -57 -46 -40 -11 -4 -3 0 0 -12 -5 -7 -20 -33 -49 -41 -70 -68 -45 -54
-82 -87 -135 -126 -88 -77 -81 -106 -105 -206 -177 -167 -119 -14 -20 -30 -21 -33 -27 -35 -40 0 0 -51 -48 -22 -18 -6 -5 -7 0 -1 -13 -11 -5 -12 -10 -16 -21 -23 -28 -123 -75
-56 -56 -84 -36 -106 -129 -126 -82 -257 -224 -213 -161 -7 -9 -31 -15 -11 -46 -76 -71 0 0 0 -31 -15 -12 -16 -16 -10 -16 -57 -28 -28 -25 -19 -13 -6 -5 -13 -16 -44 -45 -37
-62 -143 -61 -76 -135 -144 -79 -99 -251 -203 -87 -30 -53 -51 -51 -49 -112 -118 -130 0 0 0 -10 -118 -49 -34 -21 -5 -11 -16 -41 -37 -38 -31 -22 -22 -16 -21 -16 -24 -24 -12 -18
-649 -125 -112 -90 -154 -109 -95 -137 -168 -63 -38 -23 -34 -42 -87 -107 -142 -125 -34 0 0 -25 -167 -27 -164 -32 -30 -37 -30 -50 -83 -34 -31 -35 -38 -30 -39 -41 -51 -39 -29 -6 -18
-118 -320 -110 -128 -162 -102 -123 -140 -89 -44 -25 -28 -57 -50 -121 -107 -121 -145 -14 0 0 -17 0 0 0 -143 -98 -77 -113 -155 -27 -42 -27 -28 -25 -20 -17 -24 -27 -46 -86 -15 -11
-269 -157 -82 -88 -89 -137 -145 -160 -43 -42 -37 -17 -53 -33 -88 -102 -119 -186 0 0 0 0 0 0 0 0 0 0 0 0 0 0 0 0 0 -7 -28 -24 -27 -47 -49 -36 -29
-171 -110 -90 -90 -128 -175 -157 -172 -67 -34 -35 -28 -45 -7 -72 -77 -122 0 0 0 0 0 0 0 0 0 0 0 0 0 0 0 0 0 0 0 0 0 0 -6 -23 -34 -88
-144 -132 -135 -129 -139 -170 -183 -141 -65 -162 -122 -31 -18 -10 -36 -44 -90 -97 0 0 0 0 0 0 0 0 0 0 0 0 0 0 0 0 0 0 0 0 0 0 0 -14 -23
-133 -145 -131 -146 -137 -137 -130 -128 -132 -229 -179 -39 -19 -15 -23 -47 -68 -54 -46 0 0 0 0 0 0 0 0 0 0 0 0 0 0 0 0 0 0 0 0 0 0 0 -12
-236 -116 -206 -118 -136 -102 -101 -235 -256 -265 -136 -70 -56 -21 -32 -53 -62 -40 -36 -25 0 0 0 0 0 0 0 0 0 0 0 0 0 0 0 0 0 0 0 0 0 0 0
-380 -470 -176 -172 -72 -62 -51 -105 -54 -28 -25 -38 -46 -28 -28 -33 -68 -67 -50 -14 -10 -9 0 0 0 0 0 0 0 0 0 0 0 0 0 0 0 0 0 0 0 0 0
-154 -390 -31 -328 -69 -39 -22 -44 -20 -28 -14 -13 -26 -22 -26 -36 -57 -55 -48 -34 -22 0 0 0 0 0 0 0 0 0 0 0 0 0 0 0 0 0 0 0 0 0 0
-81 -148 -33 -248 -88 -143 -41 -115 -29 -28 -36 -12 -15 -27 -59 -45 -58 -73 -19 -8 -19 -7 -1 -1 0 0 0 0 0 0 0 0 0 0 0 0 0 0 0 0 0 0 0
-81 -129 -155 -134 -67 -81 -94 -46 -96 -40 -49 -70 -68 -71 -67 -61 -73 -53 -6 0 0 -3 0 0 -1 0 0 0 0 0 0 0 0 0 0 0 0 0 0 0 0 0 0
-167 -155 -101 -55 -154 -75 -59 -79 -168 -155 -167 -128 -91 -61 -63 -46 -36 -11 0 0 -5 -29 -20 0 -14 0 -2 0 0 -1 0 -3 -4 0 0 0 0 0 0 0 0 0 0
-103 -185 -100 -77 -100 -69 -28 -120 -153 -13 -30 -264 -119 -57 -61 -65 -83 -37 -3 -8 -21 -18 -19 -23 -1 0 0 -4 0 -7 -1 0 -5 -2 -3 0 0 0 0 0 -1 -1 0
-119 -108 -69 -119 -69 -63 -45 -60 -45 -59 -72 -79 -75 -50 -57 -178 -106 -65 -14 -26 -39 -107 -11 -4 -10 0 -2 -11 -1 -3 -1 -1 0 -1 -3 -4 -1 0 0 -1 -2 0 0
-101 -93 -43 -37 -55 -60 -53 -41 -50 -170 -120 -99 -86 -52 -81 -237 -127 -90 -76 -100 -63 -3 0 0 0 -10 -10 0 0 -2 -7 0 -3 0 -9 -3 -5 -5 0 0 0 0 0
-71 -75 -79 -88 -95 -85 -103 -46 -90 -88 -90 -94 -71 -56 0 0 -181 -114 -112 -141 0 0 -1 0 0 0 -1 0 0 0 -1 -3 0 -1 -5 -3 -7 0 0 0 0 0 0
-137 -174 -142 -203 -201 -146 -121 -115 -98 -108 -93 -90 -41 0 0 0 0 0 -87 0 0 0 0 0 0 0 0 -1 -1 0 0 -1 -2 0 -2 0 0 0 0 0 0 0 0
-97 -146 -191 -148 -116 -115 -117 -124 -120 -111 -77 -36 0 0 0 0 0 0 0 0 0 0 0 0 0 -3 -6 0 -1 -4 -1 0 0 0 0 0 0 0 0 0 0 0 0
Wind_Speed
29 41 43 33 33 31 28 24 26 25 24 20 23 10 8 9 12 10 7 5 5 6 10 11 10 14 14 16 17 18 18 nan nan nan nan nan nan 16 15 20 20 21 22
34 35 44 34 28 29 26 25 24 26 26 22 nan nan nan 14 13 13 12 6 4 7 9 7 8 9 nan 12 nan nan nan nan nan nan nan nan nan nan nan 21 22 19 25
40 35 43 37 36 29 27 26 24 25 24 nan 24 2 19 23 17 10 9 10 10 11 9 7 8 10 nan nan nan nan nan nan nan nan nan nan nan nan nan 25 23 20 21
35 36 42 36 36 31 29 24 24 25 20 20 20 20 8 10 4 4 9 12 12 10 9 5 5 nan nan nan 14 nan nan nan nan nan nan nan nan nan nan nan nan 23 19
40 42 36 36 31 32 29 27 24 23 21 15 12 11 7 5 7 10 14 13 11 nan nan 5 nan nan 10 11 11 13 14 15 17 nan nan nan nan nan nan nan nan nan 25
39 35 23 29 26 28 27 26 27 20 21 17 13 11 10 7 7 10 12 11 nan nan nan nan 6 5 9 8 9 11 14 12 nan nan nan nan nan nan 19 nan nan nan nan
36 nan nan 15 23 27 27 27 30 26 18 17 15 13 11 10 8 8 9 nan nan nan nan nan 4 5 5 5 8 8 nan nan nan nan nan nan nan nan nan nan nan nan nan
nan 50 17 6 23 28 32 34 36 30 19 15 13 14 14 10 6 5 nan nan nan nan nan nan nan 5 4 3 4 6 5 nan nan nan nan nan 9 10 nan nan nan nan nan
32 46 21 15 22 28 34 38 38 30 20 15 11 8 13 12 8 nan nan nan nan 1 nan nan nan nan 3 2 3 3 nan nan nan nan nan nan nan 7 8 nan nan nan nan
37 40 33 23 20 24 34 39 40 34 24 15 8 5 10 9 7 nan nan nan nan nan nan nan nan nan nan nan nan nan nan nan nan nan nan nan 1 2 3 6 nan nan nan
46 41 22 20 20 21 32 37 40 25 26 21 8 2 7 9 5 nan nan nan nan nan nan nan nan nan nan nan nan nan nan nan nan nan nan nan nan nan nan nan 7 nan nan
43 22 13 18 21 18 27 33 30 13 8 8 5 1 6 6 nan nan nan nan nan nan nan nan nan nan nan nan nan nan nan nan nan nan nan nan nan nan nan nan nan nan nan
38 30 27 24 19 14 19 25 19 17 8 5 2 1 3 6 8 nan nan nan nan nan nan nan nan nan nan nan nan nan nan nan nan nan nan nan nan nan nan nan nan nan nan
16 33 25 23 18 10 13 21 15 14 13 9 6 5 6 5 5 11 nan nan nan nan nan nan nan nan nan nan nan nan nan nan nan nan nan nan nan nan nan nan nan nan nan
29 34 31 34 23 9 3 11 14 10 13 14 13 8 4 5 5 9 12 nan nan nan nan nan nan nan nan nan nan nan nan nan nan nan nan nan nan nan nan nan nan nan nan
21 19 38 19 41 21 5 8 12 10 9 7 10 13 7 7 10 7 12 14 nan nan nan nan nan nan nan nan nan nan nan nan nan nan nan nan nan nan nan nan nan nan nan
12 11 nan 41 35 21 18 11 11 10 11 12 13 14 3 12 13 12 11 14 nan nan nan nan nan nan nan nan nan nan nan nan nan nan nan nan nan nan nan nan nan nan nan
12 4 2 26 27 24 7 11 19 21 19 22 13 8 12 15 15 14 15 15 nan nan nan nan nan nan nan nan nan nan nan nan nan nan nan nan nan nan nan nan nan nan nan
13 10 10 19 17 24 20 24 32 27 25 16 5 4 3 15 19 21 13 14 17 15 nan nan nan nan nan nan nan nan nan nan nan nan nan nan nan nan nan nan nan nan nan
9 14 11 17 22 23 19 25 22 32 10 10 10 8 9 9 13 19 16 11 14 16 nan nan nan nan nan nan nan nan nan nan nan nan nan nan nan nan nan nan nan nan nan
12 19 16 18 16 11 6 18 17 nan nan 14 10 11 10 nan 13 20 18 17 19 20 nan nan nan nan nan nan nan nan nan nan nan nan nan nan nan nan nan nan nan nan nan
19 18 20 22 20 15 14 19 20 nan nan 18 15 15 15 12 16 29 27 25 25 nan nan nan nan nan nan nan nan nan nan nan nan nan nan nan nan nan nan nan nan nan nan
23 20 22 22 16 20 19 20 19 21 19 19 19 19 nan nan 16 25 31 34 nan nan nan nan nan nan nan nan nan nan nan nan nan nan nan nan nan nan nan nan nan nan nan
21 17 18 21 21 21 25 25 24 23 20 20 18 nan nan nan nan 28 nan nan nan nan nan nan nan nan nan nan nan nan nan nan nan nan nan nan nan nan nan nan nan nan nan
20 21 21 24 26 28 30 27 27 26 27 26 nan nan nan nan nan nan nan nan nan nan nan nan nan nan nan nan nan nan nan nan nan nan nan nan nan nan nan nan nan nan nan
22 24 24 26 27 29 30 31 33 32 nan nan nan nan nan nan nan nan nan nan nan nan nan nan nan nan nan nan nan nan nan nan nan nan nan nan nan nan nan nan nan nan nan
Wind_Direction
343 345 343 334 331 327 329 332 336 334 336 327 323 290 223 199 197 201 189 186 232 272 291 285 286 285 287 285 287 276 273 nan nan nan nan nan nan 270 256 237 242 252 253
325 327 331 326 327 321 326 330 340 331 343 341 nan nan nan 174 200 193 203 211 260 293 302 289 276 291 nan 295 nan nan nan nan nan nan nan nan nan nan nan 248 251 257 252
322 315 325 323 320 324 327 339 344 341 346 nan 357 148 182 165 162 185 225 243 276 298 304 290 273 278 nan nan nan nan nan nan nan nan nan nan nan nan nan 226 237 241 246
312 312 316 322 324 321 331 341 348 339 343 347 355 10 38 95 108 224 275 266 266 286 279 275 286 nan nan nan 299 nan nan nan nan nan nan nan nan nan nan nan nan 237 234
308 298 308 314 317 318 330 347 349 335 331 330 327 353 2 2 334 311 300 291 295 nan nan 281 nan nan 283 294 306 303 300 290 287 nan nan nan nan nan nan nan nan nan 239
259 236 294 304 307 317 330 337 345 336 320 315 314 300 312 332 325 321 313 304 nan nan nan nan 254 262 290 304 311 311 301 300 nan nan nan nan nan nan 272 nan nan nan nan
276 nan nan 297 320 328 330 330 333 335 317 309 305 311 304 290 295 308 301 nan nan nan nan nan 245 272 278 287 313 329 nan nan nan nan nan nan nan nan nan nan nan nan nan
nan 337 67 50 329 331 335 327 330 323 310 289 301 305 304 296 266 307 nan nan nan nan nan nan nan 211 237 257 298 325 328 nan nan nan nan nan 298 280 nan nan nan nan nan
330 336 346 347 326 338 333 328 328 315 298 288 281 295 303 303 297 nan nan nan nan 26 nan nan nan nan 227 251 317 335 nan nan nan nan nan nan nan 318 320 nan nan nan nan
332 338 332 322 321 339 334 330 328 325 282 267 247 263 300 301 305 nan nan nan nan nan nan nan nan nan nan nan nan nan nan nan nan nan nan nan 339 341 348 306 nan nan nan
327 316 310 306 317 340 339 334 328 320 276 249 228 264 308 300 317 nan nan nan nan nan nan nan nan nan nan nan nan nan nan nan nan nan nan nan nan nan nan nan 288 nan nan
339 289 301 307 310 341 344 337 342 348 2 136 213 339 302 327 nan nan nan nan nan nan nan nan nan nan nan nan nan nan nan nan nan nan nan nan nan nan nan nan nan nan nan
333 335 305 296 296 325 355 345 15 37 57 164 147 8 5 13 349 nan nan nan nan nan nan nan nan nan nan nan nan nan nan nan nan nan nan nan nan nan nan nan nan nan nan
357 327 321 299 285 308 9 350 352 22 353 347 12 16 17 35 10 329 nan nan nan nan nan nan nan nan nan nan nan nan nan nan nan nan nan nan nan nan nan nan nan nan nan
333 334 298 305 264 261 74 321 347 19 351 332 338 347 320 357 14 323 309 nan nan nan nan nan nan nan nan nan nan nan nan nan nan nan nan nan nan nan nan nan nan nan nan
298 344 318 299 252 195 175 296 323 358 340 317 315 290 314 340 345 348 326 307 nan nan nan nan nan nan nan nan nan nan nan nan nan nan nan nan nan nan nan nan nan nan nan
302 320 nan 298 274 199 180 209 254 269 287 287 260 269 314 342 338 337 328 319 nan nan nan nan nan nan nan nan nan nan nan nan nan nan nan nan nan nan nan nan nan nan nan
270 336 195 286 318 348 235 257 261 262 265 265 248 276 347 330 334 341 339 317 nan nan nan nan nan nan nan nan nan nan nan nan nan nan nan nan nan nan nan nan nan nan nan
283 281 263 286 320 310 310 301 291 280 279 257 277 331 325 342 342 352 331 314 310 305 nan nan nan nan nan nan nan nan nan nan nan nan nan nan nan nan nan nan nan nan nan
243 271 290 309 308 313 308 305 307 318 244 322 321 319 327 326 347 347 335 298 292 296 nan nan nan nan nan nan nan nan nan nan nan nan nan nan nan nan nan nan nan nan nan
244 255 276 283 281 268 299 279 286 nan nan 299 299 304 296 nan 310 319 312 306 297 288 nan nan nan nan nan nan nan nan nan nan nan nan nan nan nan nan nan nan nan nan nan
251 259 267 266 276 278 273 278 274 nan nan 301 300 296 292 298 305 304 299 299 298 nan nan nan nan nan nan nan nan nan nan nan nan nan nan nan nan nan nan nan nan nan nan
242 249 262 269 275 286 284 281 283 280 286 286 286 284 nan nan 285 291 297 299 nan nan nan nan nan nan nan nan nan nan nan nan nan nan nan nan nan nan nan nan nan nan nan
251 258 268 274 277 281 283 286 288 289 287 290 292 nan nan nan nan 287 nan nan nan nan nan nan nan nan nan nan nan nan nan nan nan nan nan nan nan nan nan nan nan nan nan
256 265 270 274 280 282 287 293 295 289 281 284 nan nan nan nan nan nan nan nan nan nan nan nan nan nan nan nan nan nan nan nan nan nan nan nan nan nan nan nan nan nan nan
277 278 280 281 280 283 286 287 282 279 nan nan nan nan nan nan nan nan nan nan nan nan nan nan nan nan nan nan nan nan nan nan nan nan nan nan nan nan nan nan nan nan nan